Regional Weather Roundup
Issued by NWS

Home | Current Version | Previous Version | Text Only | Print | Product List | Glossary Off
Versions: 1 2 3 4 5 6 7 8 9 10 11 12 13 14 15 16 17 18 19 20 21 22 23 24 25 26 27 28 29 30 31 32 33 34 35 36 37 38 39 40 41 42 43 44 45 46 47 48 49 50

000
ASUS43 KBIS 180202
RWRND

NORTH DAKOTA REGIONAL WEATHER ROUNDUP
NATIONAL WEATHER SERVICE BISMARCK ND
900 PM CDT THU AUG 17 2017

NOTE: "FAIR" INDICATES FEW OR NO CLOUDS BELOW 12,000 FEET WITH NO
SIGNIFICANT WEATHER AND/OR OBSTRUCTIONS TO VISIBILITY.


NDZ001>003-009>011-017-180300-
NORTHWEST NORTH DAKOTA

CITY           SKY/WX    TMP DP  RH WIND       PRES   REMARKS
WILLISTON      CLOUDY    73  53  49 NW12      29.85S
MINOT          CLEAR     71  56  58 E9        29.82R
MINOT AFB      CLEAR     73  55  52 E9        29.81R
$$

NDZ018>021-031>035-040>046-180300-
SOUTHWEST NORTH DAKOTA

CITY           SKY/WX    TMP DP  RH WIND       PRES   REMARKS
BISMARCK       PTCLDY    72  59  63 S7        29.83R
DICKINSON      MOCLDY    71  46  40 W8        29.88R
GARRISON         N/A     72  62  71 S3        29.81R
HETTINGER ARPT MOCLDY    72  50  45 N5        29.92R
$$

NDZ004>008-012>016-024-026-027-054-180300-
NORTHEAST NORTH DAKOTA

CITY           SKY/WX    TMP DP  RH WIND       PRES   REMARKS
GRAND FORKS    PTCLDY    68  64  87 SE3       29.82R
GRND FRKS AFB  PTCLDY    75  63  64 N2        29.88S
DEVILS LAKE    CLEAR     69  61  75 CALM      29.86S
$$

NDZ022-023-025-028>030-036>039-047>053-180300-
SOUTHEAST NORTH DAKOTA

CITY           SKY/WX    TMP DP  RH WIND       PRES   REMARKS
FARGO          CLEAR     66  62  87 NE3       29.83S
JAMESTOWN      CLEAR     64  60  87 SE5       29.86R
$$





USA.gov is the U.S. government's official web portal to all federal, state and local government web resources and services.